This is the latest recevied weather packets stored in our database for station/object KY4LEX. If no packets are shown the sender has not sent any weather packets the latest 10 day(s).
| Time | Temp. | Humidity | Pressure | Rain* | Wind** | Luminosity | Snow |
|---|---|---|---|---|---|---|---|
| 1778165367 | 13.89° C | 44% | 1020.6 hPa | 0 mm | - | 543 W/m² | - |
| 1778165064 | 13.89° C | 44% | 1020.7 hPa | 0 mm | - | 532 W/m² | - |
| 1778164761 | 13.33° C | 46% | 1020.9 hPa | 0 mm | - | 334 W/m² | - |
| 1778164458 | 13.33° C | 46% | 1020.7 hPa | 0 mm | - | 91 W/m² | - |
| 1778164155 | 13.33° C | 47% | 1020.8 hPa | 0 mm | - | 180 W/m² | - |
| 1778163850 | 13.33° C | 47% | 1020.8 hPa | 0 mm | - | 95 W/m² | - |
| 1778163548 | 12.78° C | 46% | 1020.8 hPa | 0 mm | - | 149 W/m² | - |
| 1778163244 | 12.78° C | 48% | 1020.8 hPa | 0 mm | - | 123 W/m² | - |
| 1778162941 | 12.78° C | 49% | 1020.8 hPa | 0 mm | - | 109 W/m² | - |
| 1778162637 | 12.78° C | 49% | 1020.8 hPa | 0 mm | - | 299 W/m² | - |
| 1778162335 | 12.78° C | 49% | 1020.4 hPa | 0 mm | - | 54 W/m² | - |
| 1778162032 | 12.22° C | 49% | 1020.7 hPa | 0 mm | - | 62 W/m² | - |
| 1778161729 | 12.22° C | 52% | 1020.7 hPa | 0 mm | - | 155 W/m² | - |
| 1778161425 | 12.22° C | 50% | 1020.6 hPa | 0 mm | - | 114 W/m² | - |
| 1778161121 | 11.67° C | 52% | 1020.8 hPa | 0 mm | - | 243 W/m² | - |
| 1778160817 | 11.11° C | 52% | 1020.9 hPa | 0 mm | - | 84 W/m² | - |
| 1778160516 | 11.11° C | 54% | 1021 hPa | 0 mm | - | 47 W/m² | - |
| 1778160211 | 11.11° C | 55% | 1020.7 hPa | 0 mm | - | 44 W/m² | - |
| 1778159909 | 10.56° C | 55% | 1020.8 hPa | 0 mm | - | 44 W/m² | - |
| 1778159605 | 10.56° C | 57% | 1020.8 hPa | 0 mm | - | 43 W/m² | - |
| 1778159302 | 10.56° C | 57% | 1020.9 hPa | 0 mm | - | 43 W/m² | - |
| 1778159000 | 10° C | 58% | 1020.8 hPa | 0 mm | - | 43 W/m² | - |
| 1778158699 | 10° C | 57% | 1020.7 hPa | 0 mm | - | 43 W/m² | - |
| 1778158396 | 10° C | 58% | 1020.8 hPa | 0 mm | - | 41 W/m² | - |
| 1778158093 | 10° C | 59% | 1021 hPa | 0 mm | - | 41 W/m² | - |
* Rain latest hour (hover to see other rain measurements)
** Current wind speed in m/s (hover to see current wind gust speed)